LA4GY-1 Weather Reports


Display with metric or nautical units.
time (UTC)temp
F
wind
direction
speed
MPH
gust
MPH
rain 1hr
in
rain 24hr
in
rain mn
in
humidity
%
barometer
mb
20260906045546 52 345 0.0 0.0 0.00 0.50 0.00 93 1008.7
20260906044546 52 345 0.0 0.0 0.00 0.50 0.00 93 1008.6
20260906043546 52 345 0.0 0.0 0.00 0.50 0.00 93 1008.6
20260906042516 52 345 0.0 0.0 0.00 0.50 0.00 93 1008.5
20260906041516 52 345 0.0 0.0 0.00 0.50 0.00 93 1008.4
20260906040516 52 345 0.0 0.0 0.00 0.50 0.00 93 1008.3
20260906035516 52 345 0.0 0.0 0.00 0.50 0.00 93 1008.3
20260906034516 52 345 0.0 0.0 0.00 0.50 0.00 93 1008.3
20260906033516 52 345 0.0 0.0 0.00 0.50 0.00 93 1008.3
20260906032516 52 345 0.0 0.0 0.00 0.50 0.00 93 1008.3
20260906031516 52 345 0.0 0.0 0.00 0.50 0.00 93 1008.3
20260906030446 52 345 0.0 0.0 0.00 0.50 0.00 93 1008.3
20260906025446 52 345 0.0 0.0 0.00 0.50 0.00 93 1008.3
20260906024416 52 304 0.0 0.0 0.00 0.50 0.00 94 1008.2
20260906023416 52 304 0.0 0.0 0.00 0.50 0.00 93 1008.1
20260906022346 52 304 0.0 0.0 0.00 0.50 0.00 93 1008.1
20260906021346 52 304 0.0 0.0 0.00 0.50 0.00 94 1008.0
20260906020346 52 304 0.0 0.0 0.00 0.50 0.00 94 1007.9
20260906015346 52 304 0.0 0.0 0.00 0.50 0.00 94 1007.9
20260906014346 52 304 0.0 0.0 0.00 0.50 0.00 94 1007.9
20260906013316 52 304 0.0 0.0 0.00 0.50 0.00 94 1007.8
20260906012316 52 304 0.0 0.0 0.00 0.50 0.00 94 1007.8
20260906011316 52 304 0.0 0.0 0.00 0.50 0.00 94 1007.9
20260906010246 51 317 0.0 0.0 0.00 0.50 0.00 94 1007.8
20260906005246 51 344 0.0 0.0 0.00 0.50 0.00 94 1007.8
20260906004246 51 355 0.0 0.0 0.00 0.50 0.00 94 1007.8
20260906003246 51 213 0.0 0.0 0.00 0.50 0.00 94 1007.6
20260906002246 51 213 0.0 0.0 0.00 0.50 0.00 94 1007.5
20260906001245 51 178 0.0 0.0 0.00 0.50 0.00 94 1007.4
20260906000245 50 157 0.0 0.0 0.00 0.50 0.00 94 1007.3
20260905235245 50 138 0.0 0.0 0.00 0.50 0.00 94 1007.2
20260905234245 50 236 0.0 0.0 0.00 0.50 0.00 94 1007.1
20260905233215 50 236 0.0 0.0 0.00 0.50 0.00 94 1007.0
20260905232215 50 236 0.0 0.0 0.00 0.50 0.00 94 1007.0
20260905231215 50 236 0.0 0.0 0.00 0.50 0.00 94 1006.7
20260905230145 50 236 0.0 0.0 0.00 0.50 0.00 94 1006.7
20260905225145 50 236 0.0 0.0 0.00 0.50 0.00 94 1006.6
20260905224115 50 178 0.0 0.0 0.00 0.50 0.00 94 1006.5
20260905223045 50 178 0.0 0.0 0.00 0.50 0.00 94 1006.4
20260905222015 50 178 0.0 0.0 0.00 0.50 0.00 94 1006.4
20260905221015 50 179 0.0 0.0 0.00 0.50 0.00 94 1006.4
20260905220015 50 178 0.0 0.0 0.00 0.50 0.00 94 1006.3
20260905215015 51 179 0.0 0.0 0.00 0.50 0.50 94 1006.1
20260905213945 51 178 0.0 0.0 0.00 0.50 0.50 94 1005.9
20260905212945 51 178 0.0 0.0 0.00 0.50 0.50 94 1005.8
20260905211945 51 178 0.0 0.0 0.00 0.50 0.50 94 1005.7
20260905210915 51 179 0.0 0.0 0.00 0.50 0.50 93 1005.6
20260905205845 52 179 0.0 0.0 0.00 0.50 0.50 94 1005.4
20260905204845 52 178 0.0 0.0 0.00 0.50 0.50 94 1005.4
20260905203845 52 178 0.0 0.0 0.00 0.50 0.50 93 1005.3
20260905202845 52 178 0.0 0.0 0.00 0.50 0.50 93 1005.3
20260905201815 52 178 0.0 0.0 0.00 0.50 0.50 94 1005.1
20260905200745 52 0 0.0 0.0 0.00 0.50 0.50 93 1005.1
20260905195715 53 0 0.0 0.0 0.00 0.50 0.50 93 1005.0
20260905194715 53 0 0.0 0.0 0.00 0.50 0.50 94 1004.9
20260905193715 53 0 0.0 0.0 0.00 0.50 0.50 94 1004.8
20260905192715 53 0 0.0 0.0 0.00 0.50 0.50 94 1004.9
20260905191645 53 0 0.0 0.0 0.00 0.50 0.50 94 1004.6
20260905190645 53 0 0.0 0.0 0.00 0.50 0.50 94 1004.6
20260905185615 53 0 0.0 0.0 0.00 0.50 0.50 94 1004.4
20260905184615 53 0 0.0 0.0 0.00 0.50 0.50 94 1004.3
20260905183615 53 0 0.0 0.0 0.00 0.50 0.50 94 1004.2
20260905182545 54 0 0.0 0.0 0.00 0.50 0.50 94 1004.1
20260905181545 54 0 0.0 0.0 0.00 0.50 0.50 94 1004.1
20260905180515 54 0 0.0 0.0 0.00 0.50 0.50 94 1004.0
20260905175515 54 163 0.0 0.0 0.01 0.50 0.50 93 1003.8
20260905174515 54 163 0.0 0.0 0.02 0.50 0.50 93 1003.7
20260905173445 55 163 0.0 0.0 0.02 0.50 0.50 93 1003.6
20260905172445 55 163 0.0 0.0 0.02 0.50 0.50 94 1003.6
20260905171445 55 163 0.0 0.0 0.02 0.50 0.50 93 1003.5
20260905170445 55 162 0.0 0.0 0.02 0.50 0.50 93 1003.3
20260905165445 55 162 0.0 0.0 0.02 0.49 0.49 93 1003.2
20260905164445 55 162 0.0 0.0 0.13 0.48 0.48 93 1003.2
20260905163445 55 162 0.0 0.0 0.18 0.48 0.48 93 1003.1
20260905162415 55 162 0.0 0.0 0.20 0.48 0.48 93 1003.1
20260905161414 55 151 0.0 0.0 0.20 0.47 0.47 93 1002.9
20260905160414 55 151 0.0 0.0 0.25 0.47 0.47 92 1002.9
20260905155344 56 129 0.0 0.0 0.30 0.46 0.46 92 1002.7
20260905154314 56 130 0.0 0.0 0.29 0.34 0.34 92 1002.8
20260905153244 56 56 0.0 0.0 0.24 0.29 0.29 93 1002.6
20260905152244 57 56 0.0 0.0 0.23 0.28 0.28 92 1002.4
20260905151244 57 56 0.0 0.0 0.23 0.27 0.27 91 1002.3
20260905150214 57 56 0.0 0.0 0.20 0.21 0.21 90 1002.3
20260905145214 58 56 0.0 0.0 0.16 0.17 0.16 90 1002.2
20260905144144 59 104 0.0 0.0 0.05 0.06 0.05 88 1002.1
20260905143114 60 106 0.0 0.0 0.05 0.06 0.05 87 1002.0
20260905142114 61 106 0.0 0.0 0.05 0.06 0.05 86 1001.9
20260905141044 61 106 0.0 0.0 0.04 0.06 0.04 84 1001.8
20260905140014 62 108 0.0 0.0 0.02 0.03 0.02 81 1001.7
20260905135014 63 107 0.0 0.0 0.00 0.02 0.00 75 1001.6
20260905134014 63 107 0.0 0.0 0.00 0.02 0.00 72 1001.5
20260905132944 63 107 0.0 0.0 0.00 0.02 0.00 69 1001.4
20260905131944 63 107 0.0 0.0 0.00 0.02 0.00 69 1001.2
20260905130944 63 158 0.0 0.0 0.00 0.02 0.00 71 1001.3
20260905125944 63 173 0.0 0.0 0.00 0.02 0.00 68 1001.3
20260905124944 63 173 0.0 0.0 0.00 0.02 0.00 69 1001.1
20260905123944 63 173 0.0 0.0 0.00 0.02 0.00 67 1001.2
20260905122915 63 173 0.0 0.0 0.00 0.02 0.00 69 1001.2
20260905121844 62 173 0.0 0.0 0.00 0.02 0.00 69 1001.1
20260905120814 62 173 0.0 0.0 0.00 0.02 0.00 68 1001.0
20260905115744 62 173 0.0 0.0 0.00 0.02 0.00 68 1001.1
20260905114744 62 173 0.0 0.0 0.00 0.02 0.00 69 1001.0
20260905113744 62 173 0.0 0.0 0.00 0.02 0.00 68 1001.0
20260905112744 62 173 0.0 0.0 0.00 0.02 0.00 70 1001.0
20260905111744 62 173 0.0 0.0 0.00 0.02 0.00 69 1000.9
20260905110744 62 177 0.0 0.0 0.00 0.02 0.00 70 1000.9
20260905105744 62 177 0.0 0.0 0.00 0.02 0.00 71 1001.0
20260905104744 61 192 0.0 0.0 0.00 0.02 0.00 73 1000.9
20260905103744 61 229 0.0 0.0 0.00 0.02 0.00 72 1000.8
20260905102744 61 167 0.0 0.0 0.00 0.02 0.00 71 1000.8
20260905101714 60 166 0.0 0.0 0.00 0.02 0.00 73 1000.8
20260905100714 60 166 0.0 0.0 0.00 0.02 0.00 72 1000.8
20260905095714 60 172 0.0 0.0 0.00 0.02 0.00 73 1000.7
20260905094714 59 172 0.0 0.0 0.00 0.02 0.00 78 1000.7
20260905093714 59 168 0.0 0.0 0.00 0.02 0.00 79 1000.7
20260905092644 59 167 0.0 0.0 0.00 0.02 0.00 79 1000.6
20260905091644 58 105 0.0 0.0 0.00 0.02 0.00 76 1000.4
20260905090644 58 140 0.0 0.0 0.00 0.02 0.00 77 1000.3
20260905085614 58 140 0.0 0.0 0.00 0.02 0.00 77 1000.3
20260905084544 58 154 0.0 0.0 0.00 0.02 0.00 79 1000.3
20260905083544 57 115 0.0 0.0 0.00 0.02 0.00 80 1000.3
20260905082544 57 115 0.0 0.0 0.00 0.02 0.00 82 1000.4
20260905081543 56 115 0.0 0.0 0.00 0.02 0.00 84 1000.3
20260905080543 56 115 0.0 0.0 0.00 0.02 0.00 83 1000.3
20260905075513 56 115 0.0 0.0 0.00 0.02 0.00 83 1000.2
20260905074443 56 115 0.0 0.0 0.00 0.02 0.00 86 1000.2
20260905073443 55 115 0.0 0.0 0.00 0.02 0.00 86 1000.1
20260905072443 55 115 0.0 0.0 0.00 0.02 0.00 85 1000.2
20260905071443 55 115 0.0 0.0 0.00 0.02 0.00 84 1000.1
20260905070443 55 115 0.0 0.0 0.00 0.02 0.00 84 1000.1
20260905065443 56 115 0.0 0.0 0.00 0.02 0.00 84 1000.0
20260905064443 55 115 0.0 0.0 0.00 0.02 0.00 83 999.8
20260905063413 55 115 0.0 0.0 0.00 0.02 0.00 83 999.7
20260905062343 55 115 0.0 0.0 0.00 0.02 0.00 84 999.7
20260905061343 54 167 0.0 0.0 0.00 0.02 0.00 85 999.7
20260905060313 54 333 0.0 0.0 0.00 0.02 0.00 88 999.6
20260905055313 53 333 0.0 0.0 0.00 0.02 0.00 88 999.5
20260905054313 53 321 0.0 0.0 0.00 0.02 0.00 88 999.5
20260905053313 53 320 0.0 0.0 0.00 0.02 0.00 88 999.4
20260905052313 53 326 0.0 0.0 0.00 0.02 0.00 88 999.4
20260905051313 53 330 0.0 0.0 0.00 0.02 0.00 88 999.4
20260905050313 53 330 0.0 0.0 0.00 0.02 0.00 88 999.4